Showing default

POSAT 2, 63488

Orbit data source: Space-Track

POSAT 2, 63488 is a Portuguese payload satellite in SSO that was launched on Tue, 14 Jan 2025 UTC via an FALCON 9 launch vehicle from the Air Force Western Test Range (AFWTR). Payload-class satellites include a variety of spacecraft equipped with specific instruments for various scientific and technological missions. These include communications satellites like Starlink; space stations such as the ISS; scientific satellites like the Hubble; Earth observation satellites from companies like Planet Labs, Umbra, and HawkEye 360; GPS; miniature CubeSats for education and research; and military/defense satellites.

Loading next visibility...
Identifier
63488, 2025-009DR
Orbit
SSO
Country
Flag of PTPT / POR
Related business
Manufacturer
LUSO
Mission
Operational Commercial Communications
Bus & Motor
CUBESAT 3U, Unknown motor
Mass
5 kg wet, 5 kg dry
Launch date (UTC)
2025-01-14 (2 years ago)
Launch vehicle
FALCON 9
Launch site
Air Force Western Test Range (AFWTR)
Object type
Payload
Rocket body
Debris
Shape & HBR
Box + 2 Pan, 0.3 m
Radar Cross Section
0.048 m², Medium (>0.1 m² and < 1m²)

Expand to show TLE details & history
Last TLE update: 6 hours ago

TLE from 6 hours ago
0 POSAT 2
1 63488U 25009DR  26256.16163416  .00010309  00000-0  55762-3 0  9995
2 63488  97.4781 329.6804 0005620 188.5867 171.5269 15.14840036 79958
Epoch: 2026-09-13T03:52Z
TLE epoch observation values (Epoch: 2026-09-13T03:52:45.191Z)
Latitude
-0.00011°
Longitude
-80.66813°
Altitude
528.382 km
Speed
7.597 km/s
True Right ascension
21h 58m 43s
True Declination
0° 00' 00"
Sunlit
Object was in full shadow at epoch
Visualization orbit readout
Latitude
Unknown
Longitude
Unknown
Altitude
Unknown
Speed
Unknown
Apparent Right ascension
Unknown
Apparent Declination
Unknown
Sunlit
N/A
Visualization observer readout
Local Sidereal Time
02:49:15
Azimuth
Unknown
Elevation
Unknown
Doppler factor
Unknown
Orbital elements
Apogee altitude
522.316 km
Perigee altitude
514.564 km
Semi-major axis
6,896.577 km
Eccentricity
0.00056
Inclination
97.4781°
RAAN
329.6804°
Arg. of periapsis
188.5867°
True anomaly
171.53638°
Mean anomaly
171.5269°
Eccentric anomaly
171.53164°
Mean motion
3.78959 °/min
Orbital period
95 mins
BSTAR
0.00055762
Loading maneuver chart data...
Computing Atmospheric mass density...
Loading historical data...
Loading historical data...
Loading historical data...
Loading historical data...
Loading historical data...
Loading historical data...
Loading historical data...

Documentation

Showing up to 5 results
|